GFSMA_prec_radar_126.txt.gz
Reflectivity
-20 -20 -20 -20 -20 -20 -20 -20 -20 -20 -20 -20 -20 -20 -20 -20 -20 -20 -20 -20 -20 -20 -20 -20 -20 -20 -20 -20 -20 -20 -20 -20 -20 -20 -20 -20 -20 -20 -20 -20 -20 -20 -20
-20 -20 -20 -20 -20 -20 -20 -20 -20 -20 -20 -20 -20 -20 -20 -20 -20 -20 -20 -20 -20 -20 -20 -20 -20 -20 -20 -20 -20 -20 -20 -20 -17 -20 -20 -20 -20 -20 -20 -20 -20 -20 -20
-20 -20 -20 -20 -20 -20 -20 -20 -20 -20 -20 -20 -20 -20 -20 -20 -20 -20 -20 -20 -20 -20 -20 -20 -20 -20 -20 -20 -20 -20 2 7 11 -1 -20 -20 -20 -20 -20 -20 -20 -20 -20
-20 -20 -20 -20 -20 -20 -20 -20 -20 -20 -20 -20 -20 -20 -20 -20 -20 -20 -20 -20 -20 -20 -20 -20 -19 -19 -9 15 23 -1 26 -12 -11 -19 -20 -20 -18 -20 -20 -20 -11 -20 -20
-20 -20 -20 -20 -20 -20 -20 -20 -20 -20 -20 -20 -20 -20 -20 -20 -20 -20 -20 -20 -20 -20 -20 -20 -20 -10 11 1 -4 -14 28 22 25 25 25 22 -7 -20 -16 9 3 -19 -16
4 -20 -20 -20 -20 -20 -20 -20 -20 -20 -20 -20 -20 -20 -20 -20 -20 -20 -20 -20 -20 -20 -20 -20 -20 -20 -20 -20 -20 -20 -20 20 -20 -2 2 -20 -9 -1 24 12 -20 -20 6
-20 -20 -20 -20 -20 -20 -20 -20 -20 -20 -20 -20 -20 -20 -20 -20 -20 -20 -20 -20 -20 -20 -20 -20 -20 -20 -20 -20 -20 -20 -20 -20 -14 5 -20 -12 -20 -20 -20 -20 -20 20 26
19 -9 -20 -20 -20 -20 -20 -20 -20 -20 -20 -20 -20 -20 -20 -20 -20 -20 -20 -20 -20 -20 -20 -20 -20 -20 -20 -20 -20 -20 -20 7 -0 -20 9 -18 -20 -18 -20 -20 -20 12 -13
31 -5 -20 -16 -15 -20 -20 -20 -20 -20 -20 -20 -20 -20 -20 -20 -20 -20 -20 -20 -20 -20 -20 -20 -20 -20 -20 -20 -20 -13 3 -20 -14 -20 4 -10 -20 -1 -18 7 17 23 -0
24 -19 -16 -6 -19 -20 -20 -20 -20 -20 -20 -20 -20 -20 -20 -20 -20 -20 -20 -20 -20 -20 -20 -20 -20 -20 -20 -20 -20 -20 -20 -20 -18 10 15 11 10 11 6 -17 4 -20 -20
31 7 -5 -20 -20 -20 -9 -20 -20 -20 -20 -13 -20 -20 -20 -20 -20 -20 -20 -20 -20 -20 -20 -20 -20 -20 -20 -20 -20 -20 -20 -20 -20 -20 -20 -10 15 -11 7 -18 -20 -20 -20
23 -5 -10 -20 -15 -20 -13 -20 -20 -20 -19 -19 -20 -20 4 -19 -20 -14 -12 -20 -20 -20 -20 -20 -20 -20 -20 -20 -20 -20 -20 -20 -20 -20 -19 5 10 16 12 -20 -20 -20 -20
18 -9 -20 -20 -19 -8 -13 -20 -20 -20 -20 -20 -20 -20 -20 -20 -20 -10 -20 -20 -20 -20 -20 -20 -20 -20 -20 -20 -20 -20 -20 -20 -20 14 0 -14 8 15 9 -20 -20 -20 -20
9 13 7 6 9 7 2 5 -16 -20 -20 -20 -7 -0 -12 -20 -20 9 -20 -20 -20 -20 -20 -20 -20 -20 -20 -20 -20 -20 -20 -8 -14 5 7 10 13 10 11 -20 4 -20 -20
3 16 20 16 10 7 7 -20 -11 -18 -20 -20 -20 1 -20 -18 0 -14 -15 -20 -20 -20 -20 -20 -20 -20 -20 -20 -20 -20 -20 -5 8 14 8 -20 -13 6 4 -8 -20 -20 -20
-20 -20 0 3 -7 8 -3 5 25 -20 -20 -6 20 -1 -3 9 21 19 -11 -20 -20 -20 -20 -20 -20 -20 -20 -20 -20 -20 -14 9 -4 5 -6 -20 3 -15 1 -20 -5 -20 -20
-2 -5 8 -0 -20 -19 13 6 -1 -15 20 -15 -8 -4 -5 9 23 9 -8 -20 -20 -20 -20 -20 -20 -20 -20 -20 -20 -20 -20 -20 -15 -2 1 -7 5 -20 -20 -20 -20 -20 5
3 -1 -13 -18 29 -18 29 27 6 -11 9 -20 -17 8 19 3 16 22 17 -17 -20 -20 -20 -20 -20 -20 -20 -20 -20 -20 -20 -20 -20 -20 -1 -8 4 -9 -20 -20 -20 -20 -20
21 27 24 18 19 22 28 26 23 28 7 -20 9 6 17 7 17 26 19 -19 -20 -20 -20 -20 -20 -20 -20 -20 -20 -20 -20 -20 -20 -20 -20 9 10 -4 -20 -20 -20 -20 -20
32 28 28 28 23 30 26 21 29 25 2 -0 1 4 9 10 14 27 25 9 -8 -8 -20 -20 -20 -20 -20 -20 -20 -20 -20 -20 -20 -20 -20 -20 -20 -19 4 4 7 -17 -20
36 36 35 35 32 33 22 26 24 6 6 6 -10 -18 11 18 22 26 28 12 -3 -18 -20 -20 -20 -20 -20 -20 -20 -20 -20 -20 -20 -20 -20 -20 -20 -20 -15 8 10 -18 -13
33 30 28 30 32 31 30 30 33 32 27 33 34 32 33 34 24 23 12 -18 -20 -20 -20 -20 -20 -20 -20 -20 -20 -20 -20 -20 -20 -20 -20 -20 -20 -20 -20 -20 13 5 15
28 31 29 35 34 37 35 38 37 38 39 36 32 32 32 37 10 -11 -19 -20 -20 -20 -20 -20 -20 -20 -20 -20 -20 -20 -20 -20 -20 -20 -20 -20 -20 -20 -20 3 5 10 -5
19 12 13 16 22 27 30 29 30 34 35 35 26 36 33 32 12 19 -13 -20 -20 -20 -20 -20 -20 -20 -20 -20 -20 -20 -20 -20 -20 -20 -20 -20 -20 -20 -20 -14 4 3 -10
-18 21 5 22 -1 1 20 21 28 30 32 38 33 20 2 -18 -14 -6 -20 -16 -20 -20 -20 -20 -20 -20 -20 -20 -20 -20 -20 -20 -20 -20 -20 -20 -20 -20 -20 -20 -16 7 -12
-19 -20 -20 -9 12 23 31 23 32 27 29 33 29 -0 26 26 2 -15 14 -2 -20 -20 -20 -20 -20 -20 -20 -20 -20 -20 -20 -20 -20 -20 -20 -20 -20 -20 -14 -20 -20 -18 -4

GFSMA_prec_radar_132.txt.gz
Reflectivity
-9 -20 -20 -20 -20 -20 -20 -20 -20 -20 -20 -20 -20 -20 -20 -20 -20 -20 -20 -20 -20 -20 -20 -20 -20 -20 -20 -20 -20 -20 -20 -20 -20 -20 -20 -20 -20 -20 -20 -20 -20 -20 -20
-18 -20 -20 -20 -20 -20 -20 -20 -20 -20 -20 -20 -20 -20 -20 -20 -20 -20 -20 -20 -20 -20 -20 -20 -20 -20 -20 -20 -20 -20 -20 -20 -20 -20 -20 -20 -20 -20 -20 -20 -20 -20 -20
-20 -20 -20 -20 -20 -20 -20 -20 -20 -20 -20 -20 -20 -20 -20 -20 -20 -20 -20 -20 -20 -20 -20 -20 -6 -1 -20 -2 6 -8 -20 -20 -20 -18 -20 -20 -20 -20 -20 -20 -20 -20 -20
-20 -20 -20 -20 -20 -20 -20 -20 -20 -20 -20 -20 -20 -20 -20 -20 -20 -20 -20 -20 -20 -20 -20 -20 -20 13 11 -3 13 24 24 23 25 4 -12 -20 -12 -20 -20 -20 -20 -20 -20
-2 -20 -20 -20 -20 -20 -20 -20 -20 -20 -20 -20 -20 -20 -20 -20 -20 -20 -20 -20 -20 -20 -20 -20 -20 -20 -20 -20 -20 -20 -20 -20 -20 -20 -20 -19 -20 -15 0 -15 0 -20 -20
-20 -17 -16 -20 -20 -20 -20 -20 -20 -20 -20 -20 -20 -20 -20 -20 -20 -20 -20 -20 -20 -20 -20 -20 -20 -20 -20 -20 -20 -20 19 -20 -20 -20 -20 -20 -20 -20 -20 -20 -18 -20 3
-8 22 27 -20 -20 -20 -20 -20 -20 -20 -20 -20 -20 -20 -20 -20 -20 -20 -20 -20 -20 -20 -20 -20 -20 -20 -20 -20 -20 -20 -20 -3 -8 -20 -20 -20 -20 -20 -20 -20 -1 -20 -20
13 15 13 9 -4 -20 -20 -20 -20 -20 -20 -20 -20 -20 -20 -20 -20 -20 -20 -20 -20 -20 -20 -20 -20 -20 -20 -20 -20 -20 -20 -20 -20 -17 -20 -20 -20 -20 -20 -20 11 -20 -20
11 19 17 25 23 15 -20 -20 -20 -20 -20 -20 -20 -20 -20 -20 -20 -20 -20 -20 -20 -20 -20 -20 -20 -20 -20 -20 -20 -20 -20 -20 -13 -4 -1 8 9 8 -11 -20 -18 -5 -20
8 17 25 22 18 25 3 -10 -20 -20 -20 -20 -20 -20 -20 -20 -20 -20 -20 -20 -20 -20 -20 -20 -20 -20 -20 -20 -20 -20 -20 -20 -20 -8 11 14 7 -7 5 -1 -20 -20 -20
3 -9 7 20 22 23 23 -7 23 -7 -20 -20 -20 -20 -20 -20 -20 -20 -20 -20 -20 -20 -20 -20 -20 -20 -20 -20 -20 -20 -20 -20 -20 -12 11 14 14 3 12 13 12 8 -20
-12 6 -7 6 15 13 23 19 31 9 -1 -19 -10 -19 -20 -20 -20 -20 -8 -20 -20 -20 -20 -20 -20 -20 -20 -20 -20 -20 -20 -20 4 4 12 8 15 4 12 17 10 3 -11
-14 22 5 6 -3 -10 34 33 31 13 2 -13 5 -1 -20 -20 -20 -19 -20 -20 -20 -20 -20 -20 -14 -20 -20 -20 -20 -20 -20 -20 -20 -20 -7 3 5 12 17 19 16 11 -20
-10 -6 4 2 -20 -19 3 15 20 20 3 16 12 -4 2 -5 -20 -20 -20 -20 -20 -20 -20 -20 -20 -20 -20 -20 -20 -20 -20 -20 -20 -14 15 15 12 -19 -6 11 14 9 -20
-20 -17 -9 6 -20 -20 -11 31 15 17 21 -5 -11 -10 -12 -15 -20 -20 -20 -20 -20 -20 -20 -20 -20 -20 -20 -20 -20 -20 -20 -20 -20 10 13 14 -5 -1 -20 -18 7 12 -3
-14 8 8 4 -19 -20 -2 24 23 10 13 13 10 26 -19 -20 -20 -20 -9 16 -1 -16 -20 -20 -20 -20 -20 -20 -20 -20 -20 -20 -20 -20 -1 14 13 13 5 -20 2 -16 -15
4 13 10 1 2 -11 11 35 18 12 9 13 25 15 -11 -8 -20 -1 1 23 14 -4 -5 -19 -16 -17 -20 -7 6 -20 -20 -20 -20 -20 -20 -19 1 -8 -19 -20 -20 -20 -5
-6 14 9 -3 -3 4 32 35 28 11 -11 22 26 4 -15 8 5 31 -17 -9 12 22 11 18 -20 -20 -20 -20 -19 -20 -20 -20 -20 -20 -20 -20 -20 -9 -9 -20 -20 -4 -17
5 2 13 22 21 37 30 36 30 13 25 23 9 7 8 19 3 21 21 24 31 23 10 22 6 -20 -19 -7 4 -16 -19 -20 -20 -20 -20 -20 -20 -20 -20 -2 -11 9 -20
32 24 30 33 38 34 34 35 34 31 27 9 22 11 19 -9 8 28 26 29 25 28 19 16 -8 -20 -13 -4 18 -13 -20 -20 -20 -20 -20 -20 -20 -20 -20 12 7 10 -20
35 28 23 26 36 34 34 36 33 24 20 28 15 16 5 15 15 10 22 22 27 26 -10 5 -13 -13 23 13 -8 -17 -20 -20 -20 -20 -20 -20 -20 -18 -14 12 14 -18 10
25 22 24 30 26 26 30 33 34 32 31 26 15 24 11 22 -4 27 -20 24 13 24 14 18 11 25 19 16 -2 -20 -20 -13 -9 4 -10 -20 -20 -20 -20 -20 15 -1 -5
33 32 30 28 29 32 34 31 27 24 16 13 19 17 12 25 24 19 21 27 33 34 29 25 32 32 17 27 16 -20 -20 -20 -9 -2 -1 -3 -9 -20 -20 -18 -5 -8 -12
30 15 16 21 25 29 29 27 27 17 18 13 -1 5 19 17 20 25 22 29 27 29 39 35 33 30 25 27 10 -7 -11 2 -12 -3 -20 -20 -20 -20 -20 -20 -20 -5 -18
-10 0 -2 10 24 29 31 33 32 31 31 28 29 33 31 26 27 30 30 35 37 41 34 32 36 32 35 27 23 22 5 -13 -20 -20 -18 -15 -11 -20 -20 -20 3 -2 -20
-20 -11 -3 -17 -12 2 10 5 1 13 19 20 25 30 34 29 29 31 31 35 36 30 30 35 35 37 32 25 28 30 7 1 5 1 -3 -15 -19 -10 -2 -7 -12 -15 -20

GFSMA_prec_radar_135.txt.gz
Reflectivity
-20 -20 -20 -20 -20 -20 -20 -20 -20 -20 -20 -20 -20 -20 -20 -20 -20 -20 -20 -20 -20 -20 -20 -20 -20 -20 -20 -20 -20 -20 -20 -20 -20 -20 -20 -20 -20 -20 -20 -20 -20 -20 -20
-20 -20 -20 -20 -20 -20 -20 -20 -20 -20 -20 -20 -20 -20 -20 -20 -20 -20 -20 -20 -20 -20 -20 -20 -20 -20 -20 -20 -20 -20 -20 -20 -20 -20 -20 -20 -20 -20 -20 -20 -20 -20 -20
-20 -20 -20 -20 -20 -20 -20 -20 -20 -20 -20 -20 -20 -20 -20 -20 -20 -20 -20 -20 -20 -20 -20 -20 5 5 7 21 23 -2 -20 -20 -20 -20 -20 -20 -20 -20 -20 -20 -20 -20 -20
-20 -20 -20 -20 -20 -20 -20 -20 -20 -20 -20 -20 -20 -20 -20 -20 -20 -20 -20 -20 -20 -20 -20 -20 -20 -20 -1 -20 -20 -20 -20 13 -14 -20 -20 -20 -20 -20 -20 -20 -20 -20 -20
-11 -17 -20 -20 -20 -20 -20 -20 -20 -20 -20 -20 -20 -20 -20 -20 -20 -20 -20 -20 -20 -20 -20 -20 -20 -20 -20 -20 -20 -20 -20 -20 -20 -20 -20 -20 -20 -20 -20 -20 -20 -5 -4
-2 -0 -20 -20 -20 -20 -20 -20 -20 -20 -20 -20 -20 -20 -20 -20 -20 -20 -20 -20 -20 -20 -20 -20 -20 -20 -20 -20 -20 -20 -20 -20 -20 -20 -20 -20 -20 -20 -20 -20 -20 -20 -20
-12 17 -10 -2 6 -20 -20 -20 -20 -20 -20 -20 -20 -20 -20 -20 -20 -20 -20 -20 -20 -20 -20 -20 -20 -20 -20 -20 -20 -20 -20 -20 -4 -20 -20 -20 -20 -20 -20 -20 -20 -20 -20
7 1 16 2 7 -10 -15 -20 -20 -20 -20 -20 -20 -20 -20 -20 -20 -20 -20 -20 -20 -20 -20 -20 -20 -20 -20 -20 -20 -20 -20 -20 -20 -20 -17 -20 -20 -20 -20 -20 -20 -20 -20
7 6 3 -2 -17 16 0 -20 -20 -20 -20 -20 -20 -20 -20 -20 -20 -20 -20 -20 -20 -20 -20 -20 -20 -20 -20 -20 -20 -20 -20 -20 -17 9 -20 -9 -16 -1 -11 -20 -15 -20 -20
-9 1 21 28 2 15 15 16 -4 -20 -20 -20 -20 -20 -20 -20 -20 -20 -20 -20 -20 -20 -20 -20 -20 -20 -20 -20 -20 -20 -20 -20 -20 -18 8 -17 -18 3 7 -20 11 -20 -20
7 -5 -4 15 -6 7 16 -0 21 4 -20 -20 -20 -20 -20 -20 -20 -20 -20 -20 -20 -20 -20 -20 -4 -20 -20 -20 -20 -20 -20 -20 -20 -20 7 12 15 8 9 13 10 -13 -20
12 8 -13 -12 -10 11 6 10 16 26 4 -20 -20 -5 15 8 7 6 -20 -20 -20 -20 -20 -20 -20 -20 -20 -20 -20 -20 -20 -20 -20 -20 -20 7 6 7 -2 -6 14 -20 -15
8 3 17 -4 -16 -20 15 26 19 -4 -3 33 7 -0 12 16 -9 -13 -16 -19 -2 -12 -20 -20 -20 -20 -20 -20 -20 -20 -20 -20 -20 -20 -20 -20 -20 -0 -20 -2 -2 -6 -4
-11 -0 9 -8 -2 -2 21 -5 -3 -18 29 18 30 18 1 21 5 -13 -11 -8 5 -8 -20 -20 -20 -20 -16 -20 -20 -20 -20 -20 -20 -20 -20 -20 -7 13 -20 -20 -20 -20 -20
-20 -18 12 12 2 11 -8 -20 -20 -1 -20 28 19 23 -2 -1 4 -6 -3 -4 -19 -20 -20 -20 -20 -15 -2 -19 -20 -20 -20 -20 -20 -20 -20 -20 -14 -20 -20 -20 -20 -20 -20
-20 -20 -8 5 -2 -0 11 1 -16 -14 -20 -20 -20 4 -7 -12 9 18 -4 7 1 25 -12 -1 -20 -15 -19 -20 5 -19 -20 -20 -20 -20 -20 -20 -20 -20 -13 -20 -20 -20 -20
-20 -20 -20 -18 5 6 -1 3 -11 -20 -20 -20 -20 2 16 -9 -20 24 -17 -19 0 2 24 25 19 20 8 -10 12 14 -20 -20 -20 -20 -20 -20 -20 -17 -10 10 -20 -20 -20
-20 -20 -20 -20 -20 -6 5 13 18 5 -20 -20 -20 10 22 18 25 4 13 -19 4 31 27 24 26 11 14 14 -1 4 -4 -20 -20 -20 -20 -20 -20 -20 -20 -10 -20 -20 -20
-20 -20 -20 -19 -13 13 10 -4 8 4 -20 -20 -9 27 22 24 28 15 13 29 30 30 26 17 14 23 20 9 7 12 -16 -20 -10 -19 -20 -20 -20 -20 -20 -20 -20 -15 -20
-20 7 -20 -11 -6 -1 -19 -9 5 5 -4 13 28 33 17 31 31 26 28 30 28 24 27 27 20 25 14 20 18 2 3 21 2 0 8 -20 -20 -20 -20 -20 -0 -20 -20
22 -8 13 12 12 23 22 18 16 28 25 21 34 34 29 29 30 35 33 28 26 16 24 27 12 2 29 32 15 27 32 16 13 -1 -20 -20 -20 -20 -20 -20 -10 -6 -20
9 33 27 36 26 24 28 30 38 37 37 37 40 28 29 30 26 29 31 21 28 23 27 21 28 19 9 27 23 22 24 19 21 -20 -20 -19 -20 -20 -20 -20 -20 -20 -20
36 36 37 36 29 24 29 32 37 32 39 36 36 35 36 33 33 30 31 28 30 30 28 26 26 28 30 26 31 33 31 18 23 -20 -20 -20 -20 -18 -20 -20 -20 -20 5
30 26 19 20 22 20 24 25 30 31 29 28 29 30 32 32 32 33 31 31 33 32 32 28 28 31 31 32 40 34 29 26 15 -20 -20 -20 -20 -20 -20 -20 -20 6 14
11 3 5 3 4 13 15 16 23 26 27 23 21 26 31 27 26 28 33 27 31 29 32 31 33 34 35 35 35 35 34 28 32 24 -9 -15 -19 -14 -20 -20 -20 -20 -16
10 6 -3 2 5 -19 -19 -20 -8 -8 2 5 6 8 9 8 17 20 22 17 24 26 28 33 35 36 34 35 38 36 31 38 37 29 7 -20 -19 -17 -14 5 -13 -19 -20

GFSMA_prec_radar_138.txt.gz
Reflectivity
1 4 1 -5 -2 -20 -20 -20 -20 -20 -20 -20 -20 -20 -20 -20 -20 -20 -20 -18 -20 -20 -20 -20 -20 -20 -20 -20 -20 -20 -20 -20 -20 -20 -20 -20 -20 -20 -20 -20 -20 -20 -20
-5 -4 -3 -14 -3 -20 -20 -20 -20 -20 -20 -20 -20 -20 -20 -20 -20 -20 -20 -20 -20 -20 -20 -2 -19 -20 -20 -20 -20 -20 -20 -20 -20 -20 -20 -20 -20 -20 -20 -20 -20 -20 -20
-15 -20 -20 -20 -20 -20 -20 -20 -20 -20 -20 -20 -20 -20 -20 -20 -20 -20 -20 -20 -20 -20 -20 -4 7 6 -19 15 9 -14 -20 -20 -20 -20 -20 -20 -20 -20 -20 -20 -20 -20 -20
-18 -3 -20 -20 -20 -20 -20 -20 -20 -20 -20 -20 -20 -20 -20 -20 -20 -20 -20 -20 -20 -20 -20 -20 -20 -11 6 -20 -20 -20 -20 -20 8 -20 -20 -20 -19 -5 -20 -7 -16 -19 -20
-5 -0 -20 -20 -20 -20 -20 -20 -20 -20 -20 -20 -20 -20 -20 -20 -20 -20 -20 -20 -20 -20 -20 -20 -20 -20 -20 -20 -20 -20 -20 -20 -20 -20 -20 -19 -6 -20 -20 -20 -20 -20 -11
6 19 -14 -20 -20 -20 -20 -20 -20 -20 -20 -20 -20 -20 -20 -20 -20 -20 -20 -20 -20 -20 -20 -20 -20 -20 -20 -20 -20 -20 -20 -20 -20 -20 -20 -20 -20 -20 -20 -20 -20 -20 -20
9 -20 11 -20 -20 -20 -20 -20 -20 -20 -20 -20 -20 -20 -20 -20 -20 -20 -20 -20 -20 -20 -20 -20 -20 -20 -20 -20 -20 -20 -20 -3 -17 -20 -20 -20 -20 -20 -20 -20 -20 -20 -20
9 -7 -20 -20 -16 -2 -20 -20 -20 -20 -20 -20 -20 -20 -20 -20 -20 -20 -20 -20 -20 -20 -20 -20 -20 -20 -20 -20 -20 -20 -20 -20 0 -9 -19 -20 -20 -20 -20 -20 -0 -20 -20
6 19 0 -8 -0 -6 -20 -20 -20 -20 -20 -20 -20 -20 -20 -20 -20 -20 -20 -20 -20 -20 -20 -20 -20 -20 -20 -20 -20 -20 -20 -20 -20 11 -20 -20 -20 -11 5 -9 -20 -4 -20
19 11 -0 -4 3 -16 0 -19 -20 -9 -10 -20 -20 -20 -20 -20 -20 -20 -20 -20 -20 -20 -20 -20 -20 -20 -20 -19 -20 -20 -20 -20 -20 -20 -20 -20 -20 -20 -20 1 4 10 -20
15 12 10 5 -19 -7 -1 -20 -20 -19 -20 -19 -20 -20 -20 -20 -20 -20 -20 -20 -20 -20 -3 -19 -20 -20 -16 -20 -20 -20 -20 -20 -20 -20 -20 -20 -20 -7 -4 -6 12 14 -20
3 23 16 25 4 -17 -9 18 5 30 18 -3 1 -1 -14 -20 -20 -20 -20 -19 -20 -20 -7 6 -15 -19 -3 6 -18 -20 -20 -20 -20 -20 -20 -20 -14 -20 -20 -14 -2 12 -17
-1 13 13 13 17 -20 -20 -15 14 18 25 18 9 1 -5 -20 -20 -5 -11 -20 7 -3 -16 -1 -20 -18 -16 -2 -20 -20 -20 -20 -20 -20 -20 -4 -20 -20 -20 -18 6 -18 6
-20 -5 1 15 -11 6 -20 -20 0 11 11 15 11 20 -6 17 12 24 -4 6 -20 -20 -8 -20 -19 -20 -20 -20 -20 -20 -20 -20 -20 -20 -20 -20 -20 -20 5 -20 -20 -20 -20
-20 -20 -17 -2 18 20 7 -20 -5 -20 -1 13 -3 -1 -8 -16 27 7 8 9 -4 -20 -18 -3 -1 12 -1 -20 -20 -10 -20 -20 -19 -20 -20 -20 -20 -20 -18 -20 -20 -20 -20
-20 15 -20 2 8 16 17 -1 -4 3 2 -17 -19 -20 -20 -20 5 9 -14 -17 -10 -20 -3 3 14 13 22 20 10 -5 11 3 -20 -16 -8 -19 -20 -20 -20 -20 -20 -20 -20
-20 -6 24 3 7 2 10 17 8 4 -5 -12 -7 -18 -17 -20 16 -15 10 -15 6 4 18 -18 15 22 23 24 17 16 15 7 15 -15 -15 5 -11 -20 -20 -20 -20 -20 -20
-20 -20 30 27 28 7 24 6 9 -15 20 14 6 -19 -20 -14 -20 -18 -20 -10 -10 19 28 30 -0 22 23 10 24 27 19 1 21 -11 6 -15 -20 -20 -20 -20 -20 -20 -20
-20 -20 -20 -20 -9 13 9 10 -3 -5 -3 -5 4 -17 -2 1 -0 -2 7 15 7 25 30 31 32 11 16 23 17 20 -11 12 22 24 17 -3 -1 -20 -20 -19 -20 -20 -20
-13 -20 -20 -20 -20 -20 -4 10 2 8 8 14 17 8 -0 -1 3 11 22 18 33 35 29 30 30 14 19 14 27 26 31 22 27 31 33 18 16 -9 7 5 -0 -20 -20
-20 -20 -20 -20 -20 -14 -11 -2 17 8 10 6 14 16 28 26 22 11 12 5 33 24 29 24 24 29 19 1 15 23 31 30 25 17 18 21 19 11 -5 -20 -18 -18 -20
23 -20 -11 25 22 21 2 12 15 24 -8 15 30 29 25 33 28 28 33 39 30 35 33 32 27 30 22 24 24 25 26 29 26 26 23 21 26 25 -3 -1 -20 -20 -19
21 25 -15 4 23 26 30 24 30 29 22 19 17 22 29 39 24 27 35 34 33 32 33 33 34 33 32 26 28 29 29 24 31 31 27 31 24 28 15 -6 -2 -20 -20
38 38 38 33 32 30 33 27 21 16 -2 19 35 37 31 29 29 29 32 32 28 31 26 30 35 36 32 33 31 22 27 33 31 30 27 21 16 26 26 -4 -19 -20 -20
27 27 29 25 29 29 26 21 25 19 22 19 20 15 17 22 21 14 14 18 11 14 13 8 14 16 22 30 29 27 23 28 34 30 29 27 25 33 30 13 1 -20 9
6 1 -10 7 14 -1 18 22 14 15 9 1 -3 -2 -12 -13 -10 -19 -18 -13 -8 -8 -7 -10 -6 2 5 11 11 6 -3 16 25 28 30 33 33 39 34 8 -19 -14 -20

GFSMA_prec_radar_141.txt.gz
Reflectivity
14 29 11 3 -20 -20 -20 -20 -20 -20 -20 -20 -20 -20 -20 -20 -20 -20 -20 -20 -20 -20 -20 -20 -20 -20 -20 -20 -20 -20 -20 -20 -20 -20 -20 -20 -20 -20 -20 -20 -20 -20 -20
-0 -12 4 -10 -9 -20 -20 -20 -20 -20 -20 -20 -20 -20 -20 -20 -20 -20 -20 -20 -20 -20 -20 -4 -4 -20 -20 -20 -20 -20 -20 -20 -20 -20 -20 -20 -20 -20 -20 -20 -20 -20 -20
-18 -5 -3 -11 -7 -20 -20 -20 -20 -20 -20 -20 -20 -20 -20 -20 -20 -20 -20 -20 -20 -20 -20 -20 5 -11 -20 -5 -7 2 -20 -20 -20 -20 -20 -20 -20 -20 -20 -20 -20 -20 -20
-11 9 -0 -20 -10 -20 -20 -20 -20 -20 -20 -20 -20 -20 -20 -20 -20 -20 -20 -20 -20 -20 -20 -20 -20 -8 4 -20 -20 -20 -20 -20 -20 -3 -15 -20 -10 -17 2 5 1 -1 10
3 15 -20 6 -6 -20 -20 -20 -20 -20 -20 -20 -20 -20 -20 -20 -20 -20 -20 -20 -20 -20 -20 -20 -20 -20 -20 -20 -20 -20 -20 -20 -20 -20 -20 -20 -4 -5 -20 -20 -20 -20 -11
25 21 1 14 26 -11 -20 -20 -20 -20 -20 -20 -20 -20 -20 -20 -20 -20 -20 -20 -20 -20 -20 -20 -20 -20 -20 -20 -20 -20 -20 -20 -15 -20 -20 -20 -20 -20 -20 -20 -20 -20 5
19 14 -9 22 26 9 -20 -20 -20 -20 -20 -20 -20 -20 -20 -20 -20 -20 -20 -20 -20 -20 -20 -20 -20 -20 -20 -20 -20 -20 -20 -20 -7 -20 -20 -20 -20 -20 -20 -20 -20 -20 -20
9 14 -5 -16 4 -5 -20 -20 -20 -20 -20 -20 -20 -20 -20 -20 -20 -20 -20 -20 -20 -20 -20 -20 -20 -20 -20 -20 -20 -20 -20 -20 4 7 -11 -20 -20 -20 -20 -20 -8 -20 -20
9 16 12 4 4 -18 15 -20 -20 -20 -20 -20 -20 -20 -20 -20 -20 -20 -20 -20 -20 -20 -20 -20 -20 -20 -20 -20 -20 -20 -20 -20 -20 -9 11 6 -17 -4 7 10 -9 -20 -20
-4 12 24 23 6 16 11 14 -20 -20 -20 -20 -20 -20 -20 -20 -20 -20 -20 -20 -20 -20 -20 -20 -20 -20 -20 -20 -15 -17 -19 -14 -20 -20 8 9 1 -14 3 5 5 11 9
-20 8 -2 10 4 7 -3 3 7 -20 -20 -20 -20 -20 -19 -20 -20 -20 -20 -20 -20 -20 -20 -20 -20 -20 -20 -20 2 -12 -20 -20 -10 -20 -10 -19 -14 -4 5 13 7 11 14
-20 8 13 7 19 11 19 20 -15 -20 -20 -20 -20 -20 -20 -20 -20 -20 -20 -20 -20 -20 -20 -20 -20 -20 2 6 -18 -19 -20 -20 -20 -20 -20 -20 -20 -20 -1 -8 -4 15 15
-2 -2 -12 12 9 26 10 -4 22 5 19 -20 -19 -3 2 14 -18 -16 27 2 -20 -20 -20 -1 -1 -14 -10 -18 -5 -20 -20 2 -15 -20 -20 -20 -20 -20 -20 -20 -20 -20 15
-20 -20 -20 -20 -16 13 15 14 -13 19 22 22 -13 -9 7 19 1 2 22 18 10 -0 -17 24 -17 -9 -20 -20 -20 -20 -20 -12 -20 -10 2 -20 -16 -10 -20 -20 -20 -16 -20
-20 -20 -20 -20 20 29 -5 24 10 6 -5 -5 4 -1 8 27 31 29 24 21 16 8 2 11 -16 3 -20 -20 -20 -20 -12 -20 -20 -20 -5 7 7 -1 -5 -10 -15 -20 -20
-20 -20 -20 -20 3 7 0 8 16 2 22 22 21 -20 3 27 18 16 -3 -9 -1 -20 -20 -20 -20 -20 -3 -17 -19 -13 6 -5 -14 -14 -20 -17 3 -2 0 -20 -20 -20 -20
-20 -20 -20 -20 -18 22 17 -7 9 19 6 -3 -20 -20 -7 -12 4 18 -5 8 11 2 -20 -19 -4 -18 -20 1 8 -7 -4 9 18 7 16 1 4 -20 -20 -10 -10 -20 -20
-20 -20 -20 -20 -20 -20 -3 13 11 5 18 11 -19 -6 2 -20 -20 -18 -15 -4 20 -8 14 8 -9 -8 -20 -20 9 19 -13 -15 20 18 26 17 10 -4 14 -19 -20 -6 -20
-20 -20 -20 -20 -20 -20 -20 25 19 16 12 18 17 11 -1 21 11 7 -8 -6 10 -8 4 -10 -5 -7 -19 -16 14 26 28 -4 17 19 15 14 22 19 19 18 -18 -2 -20
-20 -20 -20 -20 -20 -20 -20 -9 -20 -11 13 2 4 -11 7 9 7 10 -2 -12 -3 7 15 10 14 -11 -14 1 1 15 23 10 19 28 30 18 29 28 18 10 -20 -11 2
-20 -20 -20 -20 -20 -20 -20 -19 -20 -20 7 -14 -17 -7 -2 12 11 -4 5 17 32 32 31 32 29 27 29 23 23 25 36 29 29 27 19 22 28 25 22 25 23 6 -0
-2 -20 -20 -20 29 26 -15 5 -20 1 -8 10 13 -10 2 21 8 13 12 3 13 17 18 24 34 21 18 20 28 30 33 37 32 21 27 33 24 28 20 12 25 18 17
19 -7 14 -20 -20 -20 -4 -20 -3 2 -11 -19 17 10 7 7 17 12 7 4 14 22 26 22 22 20 21 19 11 17 18 26 27 23 25 27 21 10 0 21 30 17 21
23 31 13 18 -3 18 16 29 24 20 13 20 15 -3 26 23 13 -1 -3 -3 -3 5 11 -6 -4 -8 6 11 27 32 26 20 20 6 3 8 15 12 -2 21 31 27 20
30 29 32 36 38 38 37 35 23 5 24 24 19 11 6 11 7 -11 -13 4 8 -8 10 8 2 -19 -20 -20 -20 -17 -17 -13 -20 -19 -20 -14 -6 -18 -8 12 26 31 26
37 33 31 23 26 5 15 15 17 15 13 -12 -18 -18 -4 -20 -20 -20 -20 -20 -20 -20 -20 -20 -20 -20 -18 3 15 -6 -20 -20 -19 -19 -20 -15 -6 4 10 -5 6 19 27

GFSMA_prec_radar_147.txt.gz
Reflectivity
-20 -20 -20 -20 -20 -20 -20 -20 -20 -20 -20 -20 -20 -20 -20 -20 -20 -20 -20 -20 -20 -20 -20 -20 -20 -20 -20 -20 -20 -20 -20 -20 -20 -20 -20 -20 -20 -20 -20 -20 -20 -20 -20
-20 -20 -20 -20 -4 12 -20 -20 -20 -20 -20 -20 -20 -20 -20 -20 -20 -20 -20 -20 -20 -20 -20 -20 -20 -20 -20 -20 -20 -20 -20 -20 -20 -20 -20 -20 -20 -20 -20 -20 -13 -5 -3
-20 -17 -20 -20 -20 -20 -20 -20 -20 -20 -20 -20 -20 -20 -20 -20 -20 -20 -20 -20 -20 -20 -20 -20 -20 -20 -20 -20 -8 -20 -0 2 9 9 9 12 -20 -20 -20 11 -8 -20 -20
-20 10 -20 -20 -20 -20 -20 -20 -20 -20 -20 -20 -20 -20 -20 -20 -20 -20 -20 -20 -20 -20 -20 -20 -20 -20 -20 -8 6 10 -8 2 2 -13 -20 -20 -7 9 -2 -20 -20 -20 -20
-9 4 7 -9 -20 -20 -20 -20 -20 -20 -20 -20 -20 -20 -20 -20 -20 -20 -20 -20 -20 -20 -20 -20 -20 -20 -20 -20 -18 -10 -10 -20 -1 -20 -20 -20 -20 -20 -20 -20 -20 -20 -20
16 21 4 4 8 12 -17 -20 -20 -20 -20 -20 -20 -20 -20 -20 -20 -20 -20 -20 -20 -20 -20 -20 -20 -20 -20 -20 -20 -20 -20 -20 -17 -12 -20 -20 -20 -20 -20 -20 -20 -20 -20
-20 19 10 10 13 -0 -20 -20 -20 -20 -20 -20 -20 -20 -20 -20 -20 -20 -20 -20 -20 -20 -20 -20 -20 -20 -20 -20 -20 -20 -20 -20 -20 -20 -20 -20 -20 -20 -20 -20 -20 -20 -6
-10 -20 26 -2 12 16 17 11 20 -20 -20 -20 -20 -20 -20 -20 -20 -20 -20 -20 -20 -20 -20 -20 -20 -20 -20 -20 -20 -20 -20 -20 -20 -20 -17 2 -5 -18 -15 4 -20 1 13
-20 13 -17 23 13 16 16 12 19 12 -20 -20 -20 -20 -20 -20 -20 -20 -20 -20 -20 -20 -20 -20 -20 -20 -20 -20 -20 -20 -20 -20 -20 -20 -20 7 6 -1 5 -8 3 -20 7
-20 -20 16 -6 -4 16 14 18 25 24 17 -20 -10 8 -20 -20 -20 -20 -20 -20 -20 -20 -20 -20 -20 -20 -20 -20 -20 -20 -20 -20 -20 -20 -20 -2 5 8 6 8 10 15 9
-20 -20 -20 -1 14 -20 22 9 21 14 24 -5 -20 -2 -9 -11 -20 -20 -20 -20 -20 -20 -20 -20 -20 -20 -20 -20 -20 -20 -20 -17 -20 -20 -20 -12 3 15 8 6 7 -3 8
-20 -20 -20 -9 -15 -7 -9 11 27 26 19 21 10 21 22 21 -20 -10 -20 -20 -20 -20 -20 -14 -20 -13 -20 -17 -20 -20 -20 -20 -20 -20 -20 -10 -13 -12 11 5 9 -1 -8
-20 -20 -20 -20 -20 -9 5 7 28 27 23 19 16 18 17 -3 5 6 5 -16 -19 -20 -20 -20 -20 22 4 -2 6 4 -20 -20 -20 -20 -20 -20 -20 -20 4 -3 -20 -20 -20
-20 -20 -20 -20 -17 10 -20 -3 -14 -15 19 35 35 20 17 8 13 26 24 12 9 -2 -11 -20 -20 2 19 26 14 -18 -20 -20 -20 -20 -20 -20 -3 -11 -20 -20 -20 -20 -20
-20 -20 -20 -20 -20 -20 -20 -18 7 -14 -7 18 -9 21 8 -9 -16 15 13 20 24 27 37 -3 23 17 9 33 24 5 10 -14 5 -20 -20 -20 -20 -20 -20 -20 -20 -20 -20
-20 -20 -20 -20 -20 -20 -20 4 -17 17 10 15 -16 1 -1 29 -0 -7 8 3 16 17 25 27 37 10 6 26 36 33 15 7 8 -11 7 5 -18 -20 -20 -20 -20 -3 -20
-20 -20 -20 -20 -20 -20 -20 -20 8 -3 -20 6 -19 18 -7 14 -20 15 17 8 30 26 28 36 8 -0 12 -1 5 14 13 6 -20 -8 -20 -16 -20 -20 -20 -20 -20 -4 5
-20 -20 -20 -20 -20 -20 -20 -20 -20 3 14 5 21 -20 -20 -6 19 25 28 23 27 20 21 22 1 10 23 -1 3 19 8 -1 8 10 14 16 10 -19 -20 -20 -13 -6 -20
-20 -20 -20 -20 -20 -20 -20 -20 -20 -20 -20 7 -20 -3 23 10 8 10 32 24 3 -1 27 22 -20 3 -13 3 -6 15 20 15 21 2 30 12 13 7 -12 7 18 22 9
-20 -20 -20 -20 -20 -20 -20 -20 -20 -20 -20 -20 -8 -16 5 10 -5 21 26 29 24 28 30 11 -20 -11 -1 1 13 16 14 23 23 36 29 25 9 18 16 21 17 15 18
-20 -20 -20 -20 -20 -20 -20 -20 -20 -20 -20 -20 -20 -20 10 15 25 30 29 24 -2 15 13 -16 1 -20 -10 1 22 3 11 17 9 9 -13 -20 -20 -10 -20 15 23 19 11
-20 -20 -20 -20 -20 -20 10 10 8 -20 -20 -9 -20 7 17 26 26 23 27 -2 13 17 5 17 15 22 15 21 27 19 4 11 8 -20 -20 -20 -7 -20 -20 -20 2 17 8
-20 -20 -20 -20 -20 -20 -20 9 12 -18 24 -20 18 13 -20 -19 10 29 18 8 25 4 9 -12 -2 -4 17 8 22 12 -7 4 10 2 0 -5 -15 -20 -20 -20 -20 -20 -20
1 -20 -20 -20 -19 -19 -20 -10 -18 -20 -20 -14 -20 13 -11 10 22 -9 -4 6 11 8 -15 12 20 8 15 22 -0 -14 -20 -20 -20 -20 -20 -20 -20 -20 -20 -20 -20 -20 -20
-20 -20 -20 -20 -20 -11 -1 -2 10 -20 -20 -12 -20 -16 -14 -1 15 0 12 -16 24 30 14 24 24 19 14 11 -20 -20 -20 -20 -20 -20 -20 -20 -20 -20 -20 -20 -20 -20 -20
-20 -18 -19 -20 -5 -20 3 12 9 6 14 9 8 8 20 14 20 25 20 33 24 1 -20 -16 -19 -20 -20 -20 -18 -20 -20 -20 -20 -19 -13 -10 -13 -20 -20 -20 -20 -20 -20